• In Portugal
  • List of Countries
  • For 7 days
  • Water Temperature
  • Satellite Maps
  • Weather Map
  • Weather Widgets
  • user-avatar
    Login

    Hourly Weather Sylhet

    Today, 22 November, Wednesday

    Time Temperature Precipitation Wind Pressure Humidity
    00:00 +22°C° 0 mm 1 mps 758 mmHg 73%
    01:00 +22°C° 0 mm 1 mps 758 mmHg 75%
    02:00 +22°C° 0 mm 1 mps 757 mmHg 77%
    03:00 +21°C° 0 mm 1 mps 757 mmHg 78%
    04:00 +21°C° 0 mm 1 mps 757 mmHg 80%
    05:00 +21°C° 0 mm 1 mps 757 mmHg 82%
    06:00 +18°C° 0 mm 0 mps 757 mmHg 85%
    07:00 +20°C° 0 mm 0 mps 758 mmHg 79%
    08:00 +24°C° 0 mm 1 mps 758 mmHg 72%
    09:00 +26°C° 0 mm 1 mps 758 mmHg 66%
    10:00 +27°C° 0 mm 1 mps 758 mmHg 61%
    11:00 +29°C° 0 mm 1 mps 757 mmHg 55%
    12:00 +30°C° 0 mm 1 mps 757 mmHg 50%
    13:00 +30°C° 0 mm 1 mps 756 mmHg 48%
    14:00 +31°C° 0 mm 1 mps 756 mmHg 47%
    15:00 +31°C° 0 mm 1 mps 755 mmHg 45%
    16:00 +29°C° 0 mm 1 mps 755 mmHg 50%
    17:00 +27°C° 0 mm 1 mps 755 mmHg 55%
    18:00 +25°C° 0 mm 1 mps 755 mmHg 60%
    19:00 +24°C° 0 mm 1 mps 756 mmHg 62%
    20:00 +24°C° 0 mm 1 mps 756 mmHg 64%
    21:00 +23°C° 0 mm 1 mps 757 mmHg 66%
    22:00 +23°C° 0 mm 1 mps 757 mmHg 67%
    23:00 +22°C° 0 mm 1 mps 757 mmHg 68%

    Tomorrow, 23 November, Thursday

    Time Temperature Precipitation Wind Pressure Humidity
    00:00 +22°C° 0 mm 1 mps 757 mmHg 70%
    01:00 +21°C° 0 mm 1 mps 757 mmHg 71%
    02:00 +21°C° 0 mm 1 mps 757 mmHg 72%
    03:00 +20°C° 0 mm 1 mps 756 mmHg 73%
    04:00 +20°C° 0 mm 1 mps 757 mmHg 75%
    05:00 +20°C° 0 mm 1 mps 757 mmHg 76%
    06:00 +19°C° 0 mm 1 mps 757 mmHg 78%
    07:00 +21°C° 0 mm 1 mps 757 mmHg 72%
    08:00 +23°C° 0 mm 1 mps 758 mmHg 66%
    09:00 +25°C° 0 mm 1 mps 759 mmHg 59%
    10:00 +26°C° 0 mm 1 mps 758 mmHg 54%
    11:00 +28°C° 0 mm 1 mps 758 mmHg 49%
    12:00 +29°C° 0 mm 1 mps 757 mmHg 43%
    13:00 +30°C° 0 mm 1 mps 757 mmHg 43%
    14:00 +30°C° 0 mm 1 mps 756 mmHg 42%
    15:00 +30°C° 0 mm 1 mps 755 mmHg 42%
    16:00 +28°C° 0 mm 1 mps 755 mmHg 46%
    17:00 +26°C° 0 mm 1 mps 756 mmHg 50%
    18:00 +24°C° 0 mm 1 mps 756 mmHg 54%
    19:00 +23°C° 0 mm 1 mps 756 mmHg 56%
    20:00 +23°C° 0 mm 1 mps 757 mmHg 58%
    21:00 +22°C° 0 mm 1 mps 758 mmHg 60%
    22:00 +22°C° 0 mm 1 mps 758 mmHg 63%
    23:00 +21°C° 0 mm 1 mps 758 mmHg 65%

    Day after tomorrow, 24 November, Friday

    Time Temperature Precipitation Wind Pressure Humidity
    00:00 +21°C° 0 mm 1 mps 758 mmHg 67%
    01:00 +20°C° 0 mm 1 mps 758 mmHg 67%
    02:00 +20°C° 0 mm 1 mps 757 mmHg 68%
    03:00 +20°C° 0 mm 1 mps 757 mmHg 68%
    04:00 +19°C° 0 mm 1 mps 757 mmHg 68%
    05:00 +19°C° 0 mm 1 mps 757 mmHg 68%
    06:00 +19°C° 0 mm 1 mps 758 mmHg 68%
    07:00 +21°C° 0 mm 1 mps 758 mmHg 64%
    08:00 +23°C° 0 mm 1 mps 759 mmHg 60%
    09:00 +25°C° 0 mm 1 mps 759 mmHg 55%
    10:00 +26°C° 0 mm 1 mps 759 mmHg 53%
    11:00 +28°C° 0 mm 1 mps 758 mmHg 50%
    12:00 +29°C° 0 mm 1 mps 758 mmHg 48%
    13:00 +30°C° 0 mm 1 mps 757 mmHg 47%
    14:00 +30°C° 0 mm 1 mps 757 mmHg 46%
    15:00 +30°C° 0 mm 1 mps 756 mmHg 45%
    16:00 +28°C° 0 mm 1 mps 756 mmHg 50%
    17:00 +26°C° 0 mm 1 mps 756 mmHg 54%
    18:00 +24°C° 0 mm 1 mps 757 mmHg 59%
    19:00 +23°C° 0 mm 1 mps 757 mmHg 60%
    20:00 +23°C° 0 mm 1 mps 758 mmHg 61%
    21:00 +22°C° 0 mm 1 mps 759 mmHg 63%
    22:00 +22°C° 0 mm 1 mps 759 mmHg 65%
    23:00 +21°C° 0 mm 1 mps 759 mmHg 67%

    25 November, Saturday

    Time Temperature Precipitation Wind Pressure Humidity
    00:00 +21°C° 0 mm 1 mps 759 mmHg 69%
    01:00 +20°C° 0 mm 1 mps 759 mmHg 71%
    02:00 +20°C° 0 mm 1 mps 758 mmHg 72%
    03:00 +20°C° 0 mm 1 mps 758 mmHg 74%
    04:00 +19°C° 0 mm 1 mps 759 mmHg 75%
    05:00 +19°C° 0 mm 1 mps 759 mmHg 77%
    06:00 +19°C° 0 mm 1 mps 759 mmHg 78%
    07:00 +21°C° 0 mm 1 mps 760 mmHg 72%
    08:00 +23°C° 0 mm 1 mps 760 mmHg 66%
    09:00 +25°C° 0 mm 1 mps 761 mmHg 60%
    10:00 +26°C° 0 mm 1 mps 760 mmHg 56%
    11:00 +28°C° 0 mm 1 mps 759 mmHg 52%
    12:00 +29°C° 0 mm 1 mps 759 mmHg 48%
    13:00 +29°C° 0 mm 1 mps 758 mmHg 47%
    14:00 +27°C° 0 mm 0 mps 758 mmHg 46%
    15:00 +28°C° 0 mm 0 mps 757 mmHg 45%
    16:00 +26°C° 0 mm 0 mps 758 mmHg 50%
    17:00 +26°C° 0 mm 1 mps 758 mmHg 55%
    18:00 +24°C° 0 mm 1 mps 758 mmHg 59%
    19:00 +23°C° 0 mm 1 mps 759 mmHg 61%
    20:00 +23°C° 0 mm 1 mps 760 mmHg 62%
    21:00 +22°C° 0 mm 1 mps 760 mmHg 64%
    22:00 +21°C° 0 mm 1 mps 760 mmHg 66%
    23:00 +21°C° 0 mm 1 mps 760 mmHg 68%

    26 November, Sunday

    Time Temperature Precipitation Wind Pressure Humidity
    00:00 +21°C° 0 mm 1 mps 760 mmHg 69%
    01:00 +20°C° 0 mm 1 mps 760 mmHg 71%
    02:00 +20°C° 0 mm 1 mps 760 mmHg 73%
    03:00 +19°C° 0 mm 1 mps 760 mmHg 75%
    04:00 +19°C° 0 mm 1 mps 760 mmHg 76%
    05:00 +19°C° 0 mm 1 mps 760 mmHg 78%
    06:00 +19°C° 0 mm 1 mps 761 mmHg 79%
    07:00 +21°C° 0 mm 1 mps 761 mmHg 73%
    08:00 +21°C° 0 mm 2 mps 761 mmHg 67%
    09:00 +24°C° 0 mm 2 mps 762 mmHg 61%
    10:00 +26°C° 0 mm 2 mps 761 mmHg 57%
    11:00 +28°C° 0 mm 1 mps 760 mmHg 52%
    12:00 +29°C° 0 mm 1 mps 759 mmHg 48%
    13:00 +29°C° 0 mm 1 mps 759 mmHg 47%
    14:00 +29°C° 0 mm 1 mps 758 mmHg 46%
    15:00 +28°C° 0 mm 0 mps 757 mmHg 45%
    16:00 +28°C° 0 mm 1 mps 757 mmHg 50%
    17:00 +26°C° 0 mm 1 mps 758 mmHg 55%
    18:00 +24°C° 0 mm 1 mps 758 mmHg 60%
    19:00 +23°C° 0 mm 1 mps 759 mmHg 61%
    20:00 +23°C° 0 mm 1 mps 759 mmHg 63%
    21:00 +22°C° 0 mm 1 mps 760 mmHg 64%
    22:00 +21°C° 0 mm 1 mps 760 mmHg 65%
    23:00 +21°C° 0 mm 1 mps 759 mmHg 67%

    27 November, Monday

    Time Temperature Precipitation Wind Pressure Humidity
    00:00 +20°C° 0 mm 1 mps 759 mmHg 68%
    01:00 +20°C° 0 mm 1 mps 759 mmHg 69%
    02:00 +20°C° 0 mm 1 mps 759 mmHg 70%
    03:00 +19°C° 0 mm 1 mps 759 mmHg 71%
    04:00 +19°C° 0 mm 1 mps 759 mmHg 71%
    05:00 +19°C° 0 mm 1 mps 759 mmHg 72%
    06:00 +18°C° 0 mm 1 mps 759 mmHg 73%
    07:00 +20°C° 0 mm 1 mps 760 mmHg 68%
    08:00 +22°C° 0 mm 1 mps 760 mmHg 63%
    09:00 +24°C° 0 mm 1 mps 760 mmHg 58%
    10:00 +26°C° 0 mm 1 mps 760 mmHg 54%
    11:00 +27°C° 0 mm 1 mps 759 mmHg 51%
    12:00 +29°C° 0 mm 1 mps 758 mmHg 47%
    13:00 +29°C° 0 mm 1 mps 758 mmHg 46%
    14:00 +29°C° 0 mm 1 mps 757 mmHg 45%
    15:00 +29°C° 0 mm 1 mps 757 mmHg 44%
    16:00 +27°C° 0 mm 1 mps 757 mmHg 49%
    17:00 +25°C° 0 mm 1 mps 757 mmHg 53%
    18:00 +23°C° 0 mm 1 mps 757 mmHg 58%
    19:00 +23°C° 0 mm 1 mps 758 mmHg 60%
    20:00 +22°C° 0 mm 1 mps 758 mmHg 61%
    21:00 +21°C° 0 mm 1 mps 759 mmHg 63%
    22:00 +21°C° 0 mm 1 mps 758 mmHg 65%
    23:00 +20°C° 0 mm 1 mps 758 mmHg 66%
    Show more